Regional Weather Roundup
Issued by NWS

Home | Current Version | Previous Version | Graphics & Text | Print | Product List | Glossary On
Versions: 1 2 3 4 5 6 7 8 9 10 11 12 13 14 15 16 17 18 19 20 21 22 23 24 25 26 27 28 29 30 31 32 33 34 35 36 37 38 39 40 41 42 43 44 45 46 47 48 49 50
000
ASUS45 KTFX 291004
RWRMT
MONTANA HOURLY WEATHER ROUNDUP
NATIONAL WEATHER SERVICE GREAT FALLS MT
404 AM MDT SUN MAR 29 2015

NOTE: "FAIR" INDICATES FEW OR NO CLOUDS BELOW 12000 FEET WITH NO
SIGNIFICANT WEATHER AND/OR OBSTRUCTIONS TO VISIBILITY.

* THESE STATIONS ARE NOT UNDER NWS QUALITY CONTROL. THEY DO NOT
   REPORT WEATHER SUCH AS PRECIPITATION OR FOG.

MTZ001>007-043-291100-
WEST OF THE DIVIDE
CITY           SKY/WX    TMP DP  RH WIND       PRES   REMARKS
KALISPELL      MOCLDY    39  34  82 S8        30.25F WCI  33
MISSOULA       MOCLDY    34  28  79 CALM      30.33S
BUTTE          CLEAR     30  19  64 NE3       30.30F
MULLAN PASS    MOCLDY    30  28  92 SW7       30.26F WCI  23
* ESSEX        N/A       37  36  96 W1G6       N/A
* LINCOLN      N/A       39  27  62 S6G17      N/A   WCI  35
* LOOKOUT PASS N/A       32  31  96 S2         N/A
* POLSON       N/A       35  32  89 N/A        N/A
* RONAN APT    MOCLDY    43  34  71 N/A        N/A
* SEELEY LAKE  N/A       33  31  92 NE1        N/A
* THOMP F APT  MOCLDY    33  13  44 N7G14      N/A   WCI  27
* YAAK HILL    N/A       39  35  86 N/A        N/A
$$

MTZ008-052>055-291100-
SOUTHWEST MONTANA
CITY           SKY/WX    TMP DP  RH WIND       PRES   REMARKS
BOZEMAN        CLEAR     25  19  78 SE12      30.29S WCI  14
DILLON         CLEAR     28  19  69 S10       30.30S WCI  19
* W YELLOWSTON CLEAR     23  17  78 N/A        N/A
* THREE FORKS  CLEAR     37  21  52 N/A        N/A
* TWIN BRIDGES CLEAR     25  14  63 N/A        N/A
* BOULDER HILL N/A       32  17  54 S4         N/A
* WHITEHALL    N/A       34  22  61 NW4G9      N/A
* WISE RIVER   N/A       29  21  72 SW3        N/A
$$

MTZ009>010-012-014-046-048-049-054-291100-
EAST SLOPES AND CENTRAL MONTANA
CITY           SKY/WX    TMP DP  RH WIND       PRES   REMARKS
CUT BANK       PTCLDY    39  28  65 W22       30.10F WCI  29
GREAT FALLS    CLEAR     39  28  65 SW14      30.17R WCI  31
HELENA         MOCLDY    43  25  49 SW3       30.25F
* DEARBORN     N/A       45  28  51 SE4G9      N/A
* PENDROY      N/A       40  26  57 W16G21     N/A   WCI  32
* ROGERS PASS  N/A       35  26  70 E13G24     N/A   WCI  26
* SAINT MARY   N/A       41  29  62 S10G22     N/A
$$

MTZ011-013-016-021-035-040-045-047-050-051-291100-
NORTH CENTRAL MONTANA
CITY           SKY/WX    TMP DP  RH WIND       PRES   REMARKS
HAVRE          PTCLDY    36  34  92 SW12      30.12R WCI  28
LEWISTOWN      PTCLDY    37  28  70 W9        30.16F WCI  30
* N BAR RANCH  CLEAR     34  27  76 SE3       30.17R
* MALTA APT    CLEAR     39  34  82 N/A        N/A
* CHESTER      N/A       36  29  76 NW2        N/A
* DENTON       N/A       36  30  79 SW10       N/A   WCI  29
$$

MTZ017>020-022>027-061-062-291100-
NORTHEAST MONTANA
CITY           SKY/WX    TMP DP  RH WIND       PRES   REMARKS
GLASGOW        CLEAR     36  34  92 W6        30.06S WCI  31
GLENDIVE       CLEAR     37  32  82 NW17      30.07R WCI  27
JORDAN         CLEAR     37  36  96 SW8       30.12R WCI  31
SIDNEY         CLEAR     39  34  82 W15       30.01R WCI  31
WOLF POINT     CLEAR     39  34  82 W10       30.06R WCI  32
* CIRCLE       N/A       37  34  89 N/A        N/A
* NAVAJO       N/A       35  33  92 NW17G23    N/A   WCI  25
$$

MTZ028>042-056>058-291100-
SOUTHCENTRAL AND SOUTHEAST MONTANA
CITY           SKY/WX    TMP DP  RH WIND       PRES   REMARKS
BAKER          CLOUDY    39 N/A N/A NW25G38   30.06R WCI  28
BILLINGS       CLEAR     46  21  37 W21       30.19S
LIVINGSTON     CLEAR     39  21  48 W15       30.25S WCI  31
MILES CITY     CLOUDY    43  41  93 N15G21    30.16R
* LAUREL APT   CLEAR     46  19  34 W13G18     N/A
* ROUNDUP APT  CLEAR     43  27  53 W10G15     N/A
* ALZADA       N/A       41  33  73 W20G26     N/A
* LAME DEER    N/A       40  33  76 NW8G17     N/A   WCI  35
$$

REGIONAL REPORTS...DAKOTAS
CITY           SKY/WX    TMP DP  RH WIND       PRES   REMARKS
WILLISTON      CLEAR     37  34  89 NW21G29   29.96R WCI  26
DICKINSON      CLOUDY    37  34  89 NW28G39   29.90R WCI  25
CROSBY         CLEAR     36  36 100 NW20G26   29.93R WCI  25
WATFORD CITY   CLEAR     36  32  85 NW14G22   29.94R WCI  27
BISMARCK       LGT RAIN  41  37  86 NW31G43   29.73R
GRAND FORKS    CLOUDY    43  39  86 N29G44    29.46R
FARGO          CLOUDY    43  37  79 S18       29.46F
BUFFALO SD     MOCLDY    43  36  76 NW43G51   29.89R
RAPID CITY     PTCLDY    46  30  54 NW49G63   29.94R
$$

REGIONAL REPORTS...WYOMING/IDAHO/WASHINGTON
CITY           SKY/WX    TMP DP  RH WIND       PRES   REMARKS
GILLETTE       PTCLDY    41  30  65 NW24G32   30.14R
SHERIDAN       CLOUDY    45  27  49 NW14      30.20R
CODY           CLEAR     37  12  36 S3        30.22S
YELLOWSTONE LA PTCLDY    19  14  81 CALM      30.32S
SALMON         PTCLDY    28  19  69 CALM      30.35S
MULLAN PASS    MOCLDY    30  28  92 SW7       30.26S WCI  23
SAND POINT     MOCLDY    36  36 100 CALM      30.28F
SPOKANE        CLOUDY    43  36  76 S7        30.26F
$$

REGIONAL REPORTS...SASKATCHEWAN
CITY           SKY/WX    TMP DP  RH WIND       PRES   REMARKS
SWIFT CURRENT  FOG       36  34  92 W12       30.01R VSB 1 1/4 WCI  28

$$




USA.gov is the U.S. government's official web portal to all federal, state and local government web resources and services.